Terminal Aerodrome Forecast
Issued by NWS Honolulu, HI

Home | Current Version | Previous Version | Text Only | Print | Product List | Glossary On
Versions: 1 2 3 4 5 6 7 8 9 10 11 12 13 14 15 16 17 18 19 20 21 22 23 24 25
000
FTPA31 PHFO 191433 AAA
TAFHNL
TAF AMD
PHNL 191433Z 1915/2018 VRB05KT P6SM FEW035 SCT050
     FM192000 18009KT P6SM VCTS SCT030CB BKN050
     FM200600 34004KT P6SM FEW030 SCT050=

USA.gov is the U.S. government's official web portal to all federal, state and local government web resources and services.